LEMUR-2-JENNIFERSONG (47525 NORAD) Tracking and Keplerian Element Data

This shows tracking and keplerian element data for the satellite.

Feedback or suggestion? Click here.




ElementValue
Catalog47525
NameLEMUR-2-JENNIFERSONG
Epoch Orbit1199
Epoch Day101.92818039
Epoch Year2021
RAAN164.3199
Inclination97.4961
Eccentricity0.0010846
Argument of Perigee340.5045
Mean Anonmoly19.577
Mean Motion15.1282815
Decay Rate1.274E-05
L11 47525U 21006DR 21101.92818039 .00001274 00000-0 76141-4 0 9994
L22 47525 97.4961 164.3199 0010846 340.5045 19.5770 15.12828150 11996

Live tracking and technical data element details for LEMUR-2-JENNIFERSONG (NORAD 47525). LEMUR-2-JENNIFERSONG can be tracked NOW for your location showing map with azimuth and elevation plus other details from your city location.

Track the satellite on the map from your city or location and see movement details for azimuth, elevation, latitude, longitude, range, height, and movement on the map or in text.







IsCatalogInMostPopularTable: catalog: 47525, numindb: 12
Update: records affected: 1



GetName: 47525 LEMUR-2-JENNIFERSONG

Hit Count: updated at: Tue, 13 Apr 2021 04:55:44 GMT